PulseSat

PulseSat

GSAT0209 (GALILEO 12)

Last updated on April 20, 2019, 3:01 a.m. UTC

1 41174U 15079A   19108.28861705  .00000026  00000-0  00000+0 0  9992
2 41174  54.9387 173.2147 0005569 297.6743  62.3517  1.70473877 20744
UTC
Height (km)
Latitude
Longitude
Inclination
Orbital Period

Next 30 passes for location: Hong Kong

Rise time Rise Azimuth (degrees) Set time Set Azimuth (degrees) Duration Max altitude (degrees)

No matching passes for this satellites

PulseSat

PulseSat is the new satellites software and hardware trackering solution by Pulsely.
Satellite Two Line Element Set source: US Air Force Space Command

Download PulseSat for iOS
© 2017 Pulsely Limited